This is the latest recevied weather packets stored in our database for station/object KC5DAQ-28. If no packets are shown the sender has not sent any weather packets the latest 10 day(s).
| Time | Temp. | Humidity | Pressure | Rain* | Wind** | Luminosity | Snow |
|---|---|---|---|---|---|---|---|
| 1778248921 | 20.56° C | 88% | 1007.3 hPa | 0 mm | - | 65 W/m² | - |
| 1778248861 | 20° C | 88% | 1007.3 hPa | 0 mm | - | 65 W/m² | - |
| 1778248801 | 20° C | 88% | 1007.4 hPa | 0 mm | - | 65 W/m² | - |
| 1778248740 | 20° C | 88% | 1007.3 hPa | 0 mm | - | 62 W/m² | - |
| 1778248682 | 20° C | 88% | 1007.4 hPa | 0 mm | - | 56 W/m² | - |
| 1778248620 | 20° C | 88% | 1007.4 hPa | 0 mm | - | 56 W/m² | - |
| 1778248562 | 20° C | 88% | 1007.4 hPa | 0 mm | - | 58 W/m² | - |
| 1778248501 | 20° C | 88% | 1007.4 hPa | 0 mm | - | 60 W/m² | - |
| 1778248440 | 20° C | 88% | 1007.4 hPa | 0 mm | - | 58 W/m² | - |
| 1778248382 | 20° C | 88% | 1007.4 hPa | 0 mm | - | 58 W/m² | - |
| 1778248261 | 20° C | 88% | 1007.3 hPa | 0 mm | - | 63 W/m² | - |
| 1778248199 | 20° C | 88% | 1007.3 hPa | 0 mm | - | 67 W/m² | - |
| 1778248141 | 20° C | 88% | 1007.3 hPa | 0 mm | - | 72 W/m² | - |
| 1778248081 | 20.56° C | 88% | 1007.4 hPa | 0 mm | - | 97 W/m² | - |
| 1778248021 | 20° C | 88% | 1007.3 hPa | 0 mm | - | 97 W/m² | - |
| 1778247961 | 20° C | 88% | 1007.3 hPa | 0 mm | - | 99 W/m² | - |
| 1778247900 | 20° C | 88% | 1007.3 hPa | 0 mm | - | 97 W/m² | - |
| 1778247842 | 20° C | 88% | 1007.3 hPa | 0 mm | - | 95 W/m² | - |
| 1778247781 | 20° C | 88% | 1007.3 hPa | 0 mm | - | 95 W/m² | - |
| 1778247722 | 20° C | 88% | 1007.1 hPa | 0 mm | - | 93 W/m² | - |
| 1778247659 | 20° C | 88% | 1007.2 hPa | 0 mm | - | 93 W/m² | - |
| 1778247601 | 20° C | 88% | 1007.2 hPa | 0 mm | - | 102 W/m² | - |
| 1778247539 | 20° C | 88% | 1007.3 hPa | 0 mm | - | 106 W/m² | - |
| 1778247481 | 20° C | 88% | 1007.2 hPa | 0 mm | - | 109 W/m² | - |
| 1778247421 | 20° C | 88% | 1007.3 hPa | 0 mm | - | 111 W/m² | - |
* Rain latest hour (hover to see other rain measurements)
** Current wind speed in m/s (hover to see current wind gust speed)